Change the Weather History Date:

Friday, June 14, 2013

  Actual Average Record
Temperature  
Mean Temperature 64 °F 67 °F  
Max Temperature 74 °F 76 °F 96 °F (1982)
Min Temperature 53 °F 59 °F 46 °F (1875)
Degree Days  
Heating Degree Days 1 2  
Month to date heating degree days 24 40  
Since 1 June heating degree days 24 40  
Since 1 July heating degree days 5361 5666  
Cooling Degree Days 0 4  
Month to date cooling degree days 42 43  
Year to date cooling degree days 80 73  
Since 1 June cooling degree days 42 43  
Growing Degree Days 13 (Base 50)    
Moisture  
Dew Point 51 °F    
Average Humidity 69    
Maximum Humidity 93    
Minimum Humidity 44    
Precipitation  
Precipitation 1.02 in 0.13 in 1.17 in (1998)
Month to date precipitation 8.41 1.97  
Year to date precipitation 22.66 20.13  
Snow  
Snow 0.00 in 0.00 in 0.00 in (2002)
Month to date snowfall 0.0 0.0  
Since 1 June snowfall 0.0 0.0  
Since 1 July snowfall 63.4 43.8  
Snow Depth 0.00 in    
Sea Level Pressure  
Sea Level Pressure 29.70 in    
Wind  
Wind Speed 11 mph (NNE)    
Max Wind Speed 22 mph    
Max Gust Speed 28 mph    
Visibility 8 miles    
Events Rain    
T = Trace of Precipitation, MM = Missing Value Source: NWS Daily Summary

Daily Weather History Graph

Daily Weather History Graph

Search for Another Location

Airport or City:

Trip Planner

Search our weather history database for the weather conditions in past years. The results will help you decide how hot, cold, wet, or windy it might be!

Date:

Astronomy

Jun. 14, 2013 Rise Set
Actual Time 5:06 AM EDT 8:22 PM EDT
Civil Twilight 4:31 AM EDT 8:57 PM EDT
Nautical Twilight 3:47 AM EDT 9:41 PM EDT
Astronomical Twilight 2:52 AM EDT 10:36 PM EDT
Moon 10:44 AM EDT (6/14) 11:50 PM EDT (6/14)
Length of Visible Light 16h 25m
Length of Day
15h 15m
Waxing Crescent, 30% of the Moon is Illuminated
Jun 14
Waxing Crescent
Jun 16
First Quarter
Jun 23
Full
Jun 30
Last Quarter
Jul 8
New

Hourly Weather History & Observations

Time (EDT) Temp. Dew Point Humidity Pressure Visibility Wind Dir Wind Speed Gust Speed Precip Events Conditions
12:13 AM 53.6 °F 51.8 °F 94% 29.68 in 4.0 mi ENE 18.4 mph 26.5 mph 0.09 in Rain Rain
12:50 AM 53.6 °F 51.8 °F 94% 29.67 in 6.0 mi NE 20.7 mph 28.8 mph 0.16 in Rain Rain
12:54 AM 54.0 °F 51.1 °F 90% 29.67 in 6.0 mi ENE 19.6 mph 28.8 mph 0.17 in Rain Rain
1:54 AM 53.1 °F 50.0 °F 89% 29.65 in 5.0 mi NE 19.6 mph - 0.16 in Rain Rain
2:17 AM 53.6 °F 51.8 °F 94% 29.64 in 5.0 mi NE 17.3 mph - 0.06 in Rain Rain
2:24 AM 53.6 °F 51.8 °F 94% 29.64 in 5.0 mi NE 19.6 mph 25.3 mph 0.08 in Rain Rain
2:54 AM 53.1 °F 51.1 °F 93% 29.64 in 6.0 mi NE 19.6 mph 27.6 mph 0.15 in Rain Rain
3:54 AM 54.0 °F 52.0 °F 93% 29.65 in 5.0 mi NE 18.4 mph 23.0 mph 0.15 in Rain Rain
4:54 AM 54.0 °F 52.0 °F 93% 29.66 in 8.0 mi NNE 16.1 mph - 0.07 in Rain Light Rain
5:54 AM 54.0 °F 52.0 °F 93% 29.68 in 4.0 mi NNE 13.8 mph - 0.14 in Rain Rain
6:09 AM 53.6 °F 51.8 °F 94% 29.68 in 6.0 mi NNE 13.8 mph - 0.02 in Rain Light Rain
6:54 AM 54.0 °F 52.0 °F 93% 29.69 in 6.0 mi NE 12.7 mph 20.7 mph 0.09 in Rain Light Rain
7:54 AM 54.0 °F 50.0 °F 86% 29.72 in 7.0 mi NNE 12.7 mph - 0.14 in Rain Rain
8:54 AM 54.0 °F 51.1 °F 90% 29.72 in 9.0 mi NE 11.5 mph - 0.11 in Rain Light Rain
9:54 AM 55.9 °F 51.1 °F 84% 29.71 in 10.0 mi NNE 11.5 mph - 0.02 in Rain Light Rain
10:54 AM 60.1 °F 52.0 °F 75% 29.71 in 10.0 mi NNE 12.7 mph - 0.00 in   Mostly Cloudy
11:54 AM 61.0 °F 50.0 °F 67% 29.74 in 10.0 mi NNE 12.7 mph - N/A   Overcast
12:54 PM 63.0 °F 46.9 °F 56% 29.73 in 10.0 mi NE 13.8 mph - N/A   Mostly Cloudy
1:54 PM 64.9 °F 50.0 °F 58% 29.73 in 10.0 mi NE 6.9 mph - N/A   Mostly Cloudy
2:54 PM 64.9 °F 51.1 °F 61% 29.72 in 10.0 mi South 5.8 mph - N/A   Mostly Cloudy
3:54 PM 66.0 °F 52.0 °F 60% 29.71 in 10.0 mi SE 8.1 mph - N/A   Mostly Cloudy
4:54 PM 71.1 °F 52.0 °F 51% 29.70 in 10.0 mi NNW 6.9 mph - N/A   Mostly Cloudy
5:54 PM 73.9 °F 50.0 °F 43% 29.70 in 10.0 mi NNW 8.1 mph - N/A   Scattered Clouds
6:54 PM 73.9 °F 50.0 °F 43% 29.70 in 10.0 mi WNW 6.9 mph - N/A   Scattered Clouds
7:54 PM 72.0 °F 48.9 °F 44% 29.71 in 10.0 mi West 8.1 mph - N/A   Scattered Clouds
8:54 PM 68.0 °F 54.0 °F 61% 29.72 in 10.0 mi West 4.6 mph - N/A   Scattered Clouds
9:54 PM 69.1 °F 51.1 °F 53% 29.74 in 9.0 mi West 8.1 mph - N/A   Scattered Clouds
10:54 PM 66.9 °F 53.1 °F 61% 29.74 in 10.0 mi West 10.4 mph - N/A   Scattered Clouds
11:54 PM 66.9 °F 52.0 °F 59% 29.75 in 10.0 mi NW 13.8 mph - N/A   Scattered Clouds